Ana Sayfa
METAR-TAF:

METAR-TAF

Havaalanları :

Gobabis, Namibya

Enlem: 22-30-20S, Boylam: 18-58-30E, yükseklik: 1468 m

Güncel hava durumu gözlemi

Rapor saat 15:00 UTC de 1 saat ve 7 dakika önce yapıldı.
Rüzgar batıdan 3 kt
Sıcaklık 26°C
Nem 65%
Basınç 1020 hPa

METAR: FYGB 221500Z AUTO 27003KT //// // ////// 26/19 Q1020

Saat: 18:07 (16:07 UTC)


TAF: eksik

4.000'den fazla havaalanı için hava durumu gözlemleri ve tahminleri (METAR ve TAF raporları).

Kullanılabilir istasyonlar harita üzerinde sarı ve kırmızı noktalarla gösterilir.

İstasyonun adını görmek için fareyi noktanın üzerinde gezdirin.

Sonrasında hava gözlem ve tahminlerini görmek için tıklayın.

Haritayı değiştirmek için: yaklaştırmak için siyah artı işaretli yeşil düğmeye ve uzaklaştırmak için de eksi işaretli düğmeye hızla tıklayın; bitişik haritalar için yeşil okları kullanın.


METAR-TAF: